Location: Seattle
(47.6064°N, 122.3308°W)
Time: 03:42:28
(UTC-07:00)

Explorer 7 - Pass Details

Date: 05 August 2021
Orbit: 484 x 676 km, 50.3° (Epoch: 15 September)

Event Time Altitude Azimuth Distance (km) Brightness Sun altitude
Exits shadow 03:17:38 11° 130° (SE) 1,631 9.1 -20.0°
Drops below altitude 10° 03:18:16 10° 120° (ESE) 1,668 9.3 -19.9°
Sets 03:22:09 0° 80° (E) 2,579 10.9 -19.6°
